Flag for Albania Weather past 2 weeks in Durrës, Albania

Now
72 °F

Partly sunny.


Feels Like: 77 °F
Forecast: 60 / 72 °F
Wind: 5 mph from North

Location: Tirana Airport

Current Time: May 3, 2015 at 6:57:38 PM

Latest Report: May 3, 2015 at 6:20 PM


Visibility: N/A

Pressure: 29.95 "Hg

Humidity: 50%

Dew point: 52 °F

Location of DurrësLocation

Historic Weather in Durrës — Graph

°F

Durrës temperature yesterday

Maximum temperature yesterday: 68 °F (at 3:50 PM)
Minimum temperature yesterday: 54 °F (at 2:20 AM)
Average temperature yesterday: 61 °F

Past Weeks' High & Low Weather Summary

 TemperatureHumidityPressure
High75 °F (May 3, 2:50 PM)94% (Apr 25, 1:20 AM)30.15 "Hg (Apr 25, 1:20 AM)
Low41 °F (Apr 21, 5:20 AM)24% (Apr 20, 2:20 PM)29.74 "Hg (Apr 28, 3:50 AM)
Average60 °F63%30.01 "Hg
* Reported Apr 18 5:20 PM — May 3 5:20 PM, Durrës, Weather by CustomWeather, © 2015

Note: Actual official high and low records may vary slightly from our data, if they occured in-between our weather recording intervals... More about our weather records

Advertising

Durrës weather history for previous 24 hours

 ConditionsComfort  
Time TempWeatherWind HumidityBarometerVisibility
5:20 PM
Sun, May 3
72 °FPartly sunny.7 mph44%29.95 "HgN/A
4:50 PM73 °FPartly sunny.9 mph44%29.95 "HgN/A
4:20 PM73 °FPartly sunny.9 mph41%29.95 "HgN/A
3:50 PM75 °FPartly sunny.9 mph41%29.98 "HgN/A
3:20 PM73 °FPassing clouds.8 mph41%29.98 "HgN/A
2:50 PM75 °FPassing clouds.8 mph44%29.98 "HgN/A
2:20 PM73 °FPassing clouds.6 mph47%29.98 "HgN/A
1:50 PM73 °FPassing clouds.5 mph44%29.98 "HgN/A
1:20 PM73 °FPassing clouds.5 mph44%29.98 "HgN/A
12:50 PM73 °FPassing clouds.3 mph44%29.98 "HgN/A
12:20 PM72 °FPassing clouds.3 mph44%29.98 "HgN/A
11:50 AM72 °FPassing clouds.3 mph41%29.98 "HgN/A
11:20 AM72 °FPassing clouds.3 mph38%30.01 "HgN/A
10:50 AM70 °FSunny.No wind40%30.01 "Hg10 mi
10:20 AM70 °FSunny.2 mph46%30.01 "Hg10 mi
9:50 AM68 °FPassing clouds.3 mph53%30.01 "HgN/A
9:20 AM66 °FSunny.No wind56%30.01 "Hg10 mi
8:50 AM64 °FSunny.No wind56%30.01 "Hg10 mi
8:20 AM61 °FSunny.2 mph68%30.01 "Hg10 mi
7:50 AM59 °FSunny.No wind77%30.01 "Hg10 mi
7:20 AM57 °FSunny.No wind77%30.01 "Hg10 mi
6:50 AM52 °FSunny.1 mph88%30.01 "Hg10 mi
6:20 AM50 °FClear.No wind94%30.01 "Hg10 mi
5:50 AM50 °FClear.2 mph94%29.98 "Hg10 mi
5:20 AM50 °FClear.3 mph94%29.98 "Hg10 mi
4:20 AM50 °FClear.3 mph94%29.98 "Hg10 mi
3:50 AM54 °FClear.2 mph88%29.98 "Hg10 mi
3:20 AM52 °FClear.2 mph88%29.98 "Hg10 mi
2:50 AM50 °FClear.3 mph94%29.98 "Hg10 mi
2:20 AM52 °FClear.2 mph94%29.98 "Hg10 mi
1:50 AM54 °FClear.2 mph88%29.98 "Hg10 mi
1:20 AM54 °FClear.3 mph94%29.98 "Hg10 mi
12:50 AM55 °FClear.3 mph88%29.98 "Hg10 mi
12:20 AM55 °FClear.3 mph88%29.98 "Hg10 mi
11:50 PM
Sat, May 2
57 °FClear.2 mph88%30.01 "Hg10 mi
11:20 PM57 °FPassing clouds.2 mph88%30.01 "HgN/A
10:50 PM59 °FPassing clouds.2 mph88%29.98 "HgN/A
10:20 PM61 °FPassing clouds.6 mph83%29.98 "HgN/A
9:50 PM61 °FPassing clouds.6 mph83%29.98 "HgN/A
9:20 PM61 °FPassing clouds.2 mph83%29.98 "HgN/A
8:50 PM61 °FPartly cloudy.2 mph83%29.98 "HgN/A
8:20 PM63 °FBroken clouds.3 mph77%29.98 "HgN/A
7:50 PM63 °FBroken clouds.5 mph77%29.95 "HgN/A
7:20 PM64 °FPartly sunny.2 mph73%29.95 "HgN/A
6:50 PM66 °FPartly sunny.3 mph64%29.95 "HgN/A
6:20 PM66 °FPartly sunny.2 mph64%29.95 "HgN/A
Weather by CustomWeather, © 2015

See weather overviewHow to use our weather pages